This is the latest recevied weather packets stored in our database for station/object N4CJR-13. If no packets are shown the sender has not sent any weather packets the latest 1 day(s).
| Time | Temp. | Humidity | Pressure | Rain* | Wind** | Luminosity | Snow |
|---|---|---|---|---|---|---|---|
| 1836274736 | 25° C | 89% | 1005.3 hPa | - | 0 m/s | - | - |
| 1778048163 | 23.33° C | 63% | 997.5 hPa | - | 1.34 m/s, 205° | - | - |
| 1778047262 | 23.33° C | 62% | 997.5 hPa | - | 0.89 m/s, 197° | - | - |
| 1778046363 | 23.89° C | 61% | 997.5 hPa | - | 1.34 m/s, 241° | - | - |
| 1778045463 | 23.89° C | 60% | 997.7 hPa | - | 0.89 m/s, 196° | - | - |
| 1778044562 | 23.89° C | 59% | 997.8 hPa | - | 1.34 m/s, 186° | - | - |
| 1778043662 | 23.89° C | 58% | 997.9 hPa | - | 1.34 m/s, 254° | - | - |
| 1778042762 | 23.89° C | 56% | 998 hPa | - | 0.89 m/s, 200° | - | - |
| 1778041862 | 23.89° C | 54% | 997.9 hPa | - | 0.89 m/s, 233° | - | - |
| 1778040962 | 23.89° C | 54% | 997.9 hPa | - | 0.89 m/s, 230° | - | - |
| 1778040062 | 23.89° C | 53% | 998 hPa | - | 0.89 m/s, 219° | - | - |
| 1778039162 | 24.44° C | 52% | 998 hPa | - | 0.89 m/s, 218° | - | - |
| 1778038263 | 24.44° C | 50% | 998 hPa | - | 0.89 m/s, 208° | - | - |
| 1778037362 | 24.44° C | 48% | 998 hPa | - | 1.34 m/s, 203° | - | - |
| 1778036462 | 24.44° C | 47% | 997.8 hPa | - | 0.89 m/s, 247° | - | - |
| 1778035562 | 24.44° C | 47% | 997.9 hPa | - | 0.89 m/s, 180° | - | - |
| 1778034662 | 25° C | 46% | 997.9 hPa | - | 0.89 m/s, 233° | - | - |
| 1778033762 | 25° C | 45% | 998.1 hPa | - | 0.89 m/s, 208° | - | - |
| 1778032863 | 25° C | 44% | 998 hPa | - | 0.89 m/s, 207° | - | - |
| 1778031963 | 25.56° C | 42% | 997.8 hPa | - | 0.89 m/s, 211° | - | - |
| 1778031063 | 25.56° C | 42% | 997.6 hPa | - | 0.89 m/s, 193° | - | - |
| 1778030162 | 25.56° C | 40% | 997.5 hPa | - | 1.34 m/s, 191° | - | - |
| 1778029262 | 26.11° C | 39% | 997.3 hPa | - | 0.89 m/s, 168° | - | - |
| 1778028363 | 26.11° C | 37% | 997.1 hPa | - | 0.89 m/s, 190° | - | - |
| 1778027462 | 26.67° C | 34% | 997 hPa | - | 0.45 m/s, 195° | - | - |
* Rain since midnight (hover to see other rain measurements)
** Current wind speed in m/s (hover to see current wind gust speed)